Simultaneous Nadir Overpasses (SNOs) Predictions

Prediction of SNOs between METOP-A and NOAA-19 Satellite Orbit:

Table of predicted SNOs for the next 14.0 days since TLE Epoch: 2/6/2021
Index Date (METOP-A) Time (METOP-A) Lat,Lon (METOP-A) SZA (METOP-A ) Date (NOAA-19) Time (NOAA-19) Lat,Lon (NOAA-19) SZA (NOAA-19 ) Distance(km) Time Diff (sec)
1 02/11/2021 22:32:19 -80.84, 33.83 85.42 02/11/2021 22:31:06 -80.84, 33.77 85.42 1.25 73
2 02/11/2021 23:22:59 80.84,-158.71 94.59 02/11/2021 23:22:09 80.84,-158.88 94.57 2.99 50
3 02/12/2021 00:13:41 -80.83, 8.35 85.45 02/12/2021 00:13:06 -80.84, 8.43 85.44 2.08 35
4 02/12/2021 01:04:21 80.83, 175.80 94.55 02/12/2021 01:04:09 80.84, 175.78 94.55 0.60 12
5 02/12/2021 01:55:01 -80.84, -16.79 85.46 02/12/2021 01:55:05 -80.84, -16.90 85.46 1.98 4
6 02/12/2021 02:45:42 80.82, 150.31 94.51 02/12/2021 02:46:08 80.84, 150.44 94.53 2.53 26
7 02/12/2021 03:36:23 -80.83, -42.28 85.50 02/12/2021 03:37:05 -80.84, -42.24 85.49 0.94 42



Historial Predications of SNOs between METOP-A and NOAA-19
